Location: Unspecified
(45.5435°N, 0.0000°E)
Time: 14:56:36
(UTC+00:00)

Cosmos 1190 Rocket - Visible Passes

Search period start: 04 April 2026 00:00
Search period end: 14 April 2026 00:00
Orbit: 752 x 776 km, 74.1° (Epoch: 29 March)

Date Brightness Start Highest point End Pass type
(mag) Time Alt. Az. Time Alt. Az. Time Alt. Az.
4 Apr 6.6 00:21:34 10° NNE 00:24:13 14° NE 00:24:52 13° NE visible
4 Apr 5.2 02:01:50 10° NNW 02:05:00 37° NNW 02:05:00 37° NNW visible
5 Apr 5.5 01:23:36 10° N 01:26:54 33° NNE 01:26:54 33° NNE visible
5 Apr 6.1 03:06:07 10° NW 03:07:02 14° NW 03:07:02 14° NW visible
6 Apr 5.9 00:45:33 10° N 00:48:52 26° NNE 00:48:52 26° NNE visible
6 Apr 5.8 02:27:17 10° NNW 02:29:01 20° NW 02:29:01 20° NW visible
7 Apr 6.3 00:07:44 10° N 00:10:53 19° NE 00:10:53 19° NE visible
7 Apr 5.7 01:48:44 10° NNW 01:51:02 26° NNW 01:51:02 26° NNW visible
7 Apr 6.6 23:30:28 10° NNE 23:32:37 12° NE 23:32:57 12° NE visible
8 Apr 5.6 01:10:22 10° NNW 01:13:06 30° N 01:13:06 30° N visible
9 Apr 5.8 00:32:11 10° N 00:35:12 29° NNE 00:35:12 29° NNE visible
9 Apr 6.2 02:14:29 10° NW 02:15:20 14° NW 02:15:20 14° NW visible
9 Apr 6.0 23:54:10 10° N 23:57:19 24° NNE 23:57:19 24° NNE visible
10 Apr 6.0 01:35:44 10° NNW 01:37:28 21° NW 01:37:28 21° NW visible
10 Apr 6.3 23:16:26 10° N 23:19:29 17° NE 23:19:29 17° NE visible
11 Apr 5.7 00:57:14 10° NNW 00:59:38 27° NNW 00:59:38 27° NNW visible
11 Apr 6.6 22:39:32 10° NNE 22:41:00 11° NE 22:41:39 11° NE visible
12 Apr 5.6 00:18:55 10° NNW 00:21:48 32° N 00:21:48 32° N visible
12 Apr 6.5 02:01:57 10° NW 02:01:58 10° NW 02:01:58 10° NW visible
12 Apr 5.7 23:40:46 10° N 23:44:01 29° NNE 23:44:01 29° NNE visible
13 Apr 6.2 01:22:52 10° NW 01:24:10 17° NW 01:24:10 17° NW visible
13 Apr 5.9 23:02:49 10° N 23:06:14 23° NE 23:06:14 23° NE visible
